Content
SEND FEEDBACK

Daily
Averages
Monthly
Summary
United States of America

TAMUNING, GUAM


Home > North America > United States > Guam
Elevation: 250 feet     Latitude: 13 29N     Longitude: 144 47E

WEATHER
 
SELECT A DAY
Number of Records: 342,219;   Date Range: 1/1/95 - 8/28/14
 
SHARE

PRINT THIS DATA

[ ← Previous Day ]
WEATHER ALMANAC - DECEMBER 15, 2013
[ Next Day → ]
[ °C ]   °F
Weather ElementAverageHighLow
Temperature78.9 °F83.8 °F (12:58 pm)77 °F (1:37 am)
Dewpoint69.5 °F78.8 °F (12:08 am) (7:00 pm)
Humidity93.1 %100 % (12:08 am)78 % (2:58 pm)
Barometer29.86 in29.91 in (8:54 am)29.77 in (2:58 pm)
Wind Speed17.4 mph25.3 mph (9:45 am)
Wind Gust31.1 mph (9:40 am)
Weather ElementAverage
Visibility8.2 mi
Wind DirectionENE (70.6 °)

Weather ElementTotal
Precipitation0.45 in
Cooling Degree Days15.4 (Base 65)
Growing Degree Days30.4 (Base 50)
Averaged from 126 records on December 15, 2013
WEATHER CONDITIONS BREAKOUT
WIND DIRECTION BREAKOUT
WEATHER BY HOUR - DECEMBER 15, 2013
[ °C ]   °F
Local TimeTemperatureDewpointHumidityBarometerVisibilityWind DirectionWind SpeedGust SpeedPrecipitationEventsConditions
12:08 AM78.8 °F78.8 °F100 %29.89 in10.0 miENE (60°)15.0 mphMostly Cloudy
12:13 AM78.8 °F78.8 °F100 %29.89 in10.0 miENE (60°)12.7 mphMostly Cloudy
12:18 AM78.8 °F78.8 °F100 %29.89 in10.0 miENE (70°)12.7 mphMostly Cloudy
12:23 AM78.8 °F78.8 °F100 %29.89 in10.0 miENE (70°)13.8 mphMostly Cloudy
12:28 AM78.8 °F78.8 °F100 %29.88 in10.0 miENE (60°)13.8 mphPartly Cloudy
12:51 AM78.8 °F78.8 °F100 %29.88 in6.0 miENE (60°)17.3 mph21.9 mphRainLight Rain
12:58 AM78.8 °F77.0 °F94 %29.86 in4.0 miENE (60°)13.8 mph21.9 mph0.01 inRainLight Rain
1:03 AM78.8 °F78.8 °F100 %29.88 in7.0 miENE (60°)13.8 mphRainLight Rain
1:07 AM78.8 °F78.8 °F100 %29.88 in9.0 miENE (60°)13.8 mphMostly Cloudy
1:17 AM78.8 °F78.8 °F100 %29.87 in10.0 miENE (60°)9.2 mphMostly Cloudy
1:22 AM78.8 °F0.0 °F29.87 in10.0 miENE (60°)16.1 mphRainLight Rain
1:32 AM78.8 °F0.0 °F29.86 in5.0 miENE (70°)15.0 mphRainLight Rain
1:37 AM77.0 °F75.2 °F94 %29.86 in4.0 miENE (60°)15.0 mphLight Drizzle
1:42 AM77.0 °F75.2 °F94 %29.86 in7.0 miENE (70°)15.0 mphMostly Cloudy
1:52 AM77.0 °F75.2 °F94 %29.86 in10.0 miENE (60°)13.8 mphScattered Clouds
1:58 AM78.8 °F75.2 °F89 %29.83 in10.0 miENE (60°)13.8 mph0.03 inScattered Clouds
2:17 AM78.8 °F77.0 °F94 %29.85 in6.0 miENE (60°)18.4 mph25.3 mphRainHeavy Rain
2:22 AM77.0 °F77.0 °F100 %29.85 in4.0 miENE (60°)13.8 mph25.3 mphRainLight Rain
2:27 AM77.0 °F77.0 °F100 %29.85 in6.0 miENE (60°)15.0 mphRainLight Rain
2:30 AM77.0 °F77.0 °F100 %29.85 in9.0 miENE (60°)12.7 mphMostly Cloudy
2:35 AM77.0 °F77.0 °F100 %29.85 in10.0 miENE (60°)13.8 mphMostly Cloudy
2:40 AM77.0 °F0.0 °F29.85 in10.0 miENE (60°)17.3 mph21.9 mphMostly Cloudy
2:55 AM78.8 °F0.0 °F29.84 in10.0 miENE (70°)15.0 mphMostly Cloudy
2:58 AM78.8 °F0.0 °F29.81 in10.0 miENE (70°)16.1 mph0.04 inMostly Cloudy
3:18 AM78.8 °F78.8 °F100 %29.84 in10.0 miENE (70°)16.1 mphMostly Cloudy
3:23 AM78.8 °F77.0 °F94 %29.83 in10.0 miENE (70°)15.0 mphMostly Cloudy
3:25 AM78.8 °F77.0 °F94 %29.84 in6.0 miEast (80°)18.4 mphRainHeavy Rain
3:30 AM78.8 °F77.0 °F94 %29.84 in4.0 miEast (80°)13.8 mph24.2 mphRainLight Rain
3:35 AM78.8 °F77.0 °F94 %29.84 in5.0 miEast (80°)15.0 mph24.2 mphMostly Cloudy
3:40 AM78.8 °F77.0 °F94 %29.84 in10.0 miENE (70°)16.1 mphMostly Cloudy
3:50 AM78.8 °F0.0 °F29.84 in10.0 miEast (80°)16.1 mphMostly Cloudy
3:58 AM78.8 °F77.0 °F94 %29.81 in10.0 miEast (80°)15.0 mphMostly Cloudy
4:12 AM78.8 °F77.0 °F94 %29.84 in10.0 miEast (80°)15.0 mphMostly Cloudy
4:13 AM78.8 °F77.0 °F94 %29.79 in10.0 miEast (80°)17.3 mphMostly Cloudy
4:37 AM78.8 °F77.0 °F94 %29.84 in10.0 miENE (70°)18.4 mphScattered Clouds
4:47 AM78.8 °F77.0 °F94 %29.84 in10.0 miENE (70°)17.3 mph24.2 mphMostly Cloudy
4:58 AM78.4 °F77.9 °F98 %29.81 in10.0 miENE (70°)19.6 mph24.2 mphMostly Cloudy
5:18 AM78.8 °F77.0 °F94 %29.84 in10.0 miENE (70°)17.3 mph24.2 mphScattered Clouds
5:28 AM78.8 °F77.0 °F94 %29.85 in10.0 miENE (70°)20.7 mph25.3 mphMostly Cloudy
5:29 AM78.8 °F77.0 °F94 %29.85 in6.0 miENE (60°)18.4 mph25.3 mphRainLight Rain
5:39 AM77.0 °F77.0 °F100 %29.85 in2.5 miEast (80°)21.9 mph25.3 mphRainLight Rain
5:44 AM77.0 °F77.0 °F100 %29.85 in4.0 miEast (90°)16.1 mphRainLight Rain
5:55 AM77.0 °F0.0 °F29.86 in8.0 miEast (80°)13.8 mphOvercast
5:58 AM77.0 °F0.0 °F29.83 in9.0 miEast (80°)12.7 mph0.04 inOvercast
6:04 AM77.0 °F75.2 °F94 %29.86 in10.0 miEast (80°)18.4 mphOvercast
6:19 AM77.0 °F77.0 °F100 %29.87 in10.0 miEast (80°)15.0 mphOvercast
6:34 AM77.0 °F77.0 °F100 %29.87 in10.0 miEast (80°)16.1 mphMostly Cloudy
6:39 AM77.0 °F77.0 °F100 %29.87 in10.0 miENE (70°)16.1 mphMostly Cloudy
6:58 AM78.1 °F77.7 °F99 %29.84 in10.0 miENE (70°)15.0 mphMostly Cloudy
7:03 AM78.8 °F77.0 °F94 %29.87 in6.0 miENE (60°)16.1 mphRainLight Rain
7:08 AM78.8 °F78.8 °F100 %29.88 in1.2 miNE (50°)18.4 mph26.5 mphRainRain
7:18 AM77.0 °F77.0 °F100 %29.88 in4.0 miEast (80°)17.3 mphRainLight Rain
7:21 AM77.0 °F77.0 °F100 %29.88 in5.0 miEast (90°)21.9 mphMostly Cloudy
7:22 AM77.0 °F77.0 °F100 %29.88 in6.0 miEast (80°)23.0 mph29.9 mphRainLight Rain
7:27 AM77.0 °F77.0 °F100 %29.88 in1.8 miEast (80°)20.7 mph29.9 mphRainLight Rain
7:32 AM77.0 °F77.0 °F100 %29.89 in1.2 miEast (90°)20.7 mph29.9 mphRainLight Rain
7:37 AM77.0 °F0.0 °F29.89 in3.0 miEast (90°)19.6 mphRainLight Rain
7:39 AM77.0 °F0.0 °F29.89 in7.0 miEast (90°)19.6 mphOvercast
7:44 AM77.0 °F0.0 °F29.89 in10.0 miEast (80°)19.6 mphMostly Cloudy
7:54 AM77.0 °F0.0 °F29.89 in10.0 miEast (80°)20.7 mph24.2 mphMostly Cloudy
7:58 AM77.0 °F77.0 °F100 %29.86 in10.0 miEast (80°)17.3 mph24.2 mph0.13 inMostly Cloudy
8:13 AM77.0 °F77.0 °F100 %29.90 in6.0 miEast (80°)17.3 mph26.5 mphMostly Cloudy
8:14 AM77.0 °F77.0 °F100 %29.90 in6.0 miEast (80°)16.1 mph26.5 mphLight Drizzle
8:19 AM77.0 °F77.0 °F100 %29.90 in6.0 miEast (80°)18.4 mph27.6 mphLight Drizzle
8:20 AM77.0 °F77.0 °F100 %29.90 in7.0 miEast (90°)19.6 mph27.6 mphMostly Cloudy
8:25 AM78.8 °F77.0 °F94 %29.90 in8.0 miEast (80°)17.3 mph27.6 mphMostly Cloudy
8:35 AM78.8 °F77.0 °F94 %29.90 in9.0 miENE (70°)16.1 mphOvercast
8:38 AM78.8 °F77.0 °F94 %29.90 in9.0 miENE (70°)18.4 mphRainLight Rain
8:47 AM78.8 °F77.0 °F94 %29.90 in8.0 miENE (60°)20.7 mphOvercast
8:49 AM78.8 °F77.0 °F94 %29.90 in2.5 miEast (80°)19.6 mph27.6 mphRainRain
8:54 AM78.8 °F77.0 °F94 %29.91 in1.2 miEast (90°)23.0 mph27.6 mphRainHeavy Rain
8:58 AM78.8 °F77.0 °F94 %29.88 in1.0 miEast (90°)19.6 mph27.6 mph0.11 inRainHeavy Rain
9:03 AM78.8 °F77.0 °F94 %29.91 in2.5 miEast (80°)16.1 mph26.5 mphRainLight Rain
9:05 AM78.8 °F77.0 °F94 %29.91 in6.0 miEast (80°)16.1 mph26.5 mphHaze
9:10 AM78.8 °F77.0 °F94 %29.91 in10.0 miEast (80°)19.6 mph23.0 mphMostly Cloudy
9:15 AM78.8 °F77.0 °F94 %29.91 in10.0 miENE (70°)21.9 mph28.8 mphMostly Cloudy
9:20 AM78.8 °F77.0 °F94 %29.91 in10.0 miENE (70°)23.0 mph28.8 mphMostly Cloudy
9:40 AM78.8 °F77.0 °F94 %29.91 in9.0 miEast (80°)21.9 mph31.1 mphRainLight Rain
9:45 AM78.8 °F77.0 °F94 %29.91 in9.0 miENE (70°)25.3 mph31.1 mphRainLight Rain
9:50 AM78.8 °F75.2 °F89 %29.90 in9.0 miENE (70°)17.3 mph31.1 mphMostly Cloudy
9:55 AM80.6 °F77.0 °F89 %29.90 in9.0 miENE (70°)16.1 mph28.8 mphMostly Cloudy
9:58 AM77.4 °F76.1 °F96 %29.87 in9.0 miENE (70°)17.3 mph28.8 mph0.02 inMostly Cloudy
10:03 AM80.6 °F75.2 °F84 %29.90 in10.0 miENE (70°)18.4 mph25.3 mphScattered Clouds
10:33 AM80.6 °F78.8 °F94 %29.89 in10.0 miENE (70°)18.4 mph24.2 mphMostly Cloudy
10:37 AM80.6 °F78.8 °F94 %29.89 in10.0 miEast (80°)17.3 mphLight Drizzle
10:42 AM80.6 °F78.8 °F94 %29.89 in10.0 miENE (70°)17.3 mphLight Drizzle
10:43 AM80.6 °F78.8 °F94 %29.89 in10.0 miENE (70°)19.6 mphMostly Cloudy
10:58 AM80.8 °F77.7 °F90 %29.86 in9.0 miENE (70°)17.3 mph27.6 mph0.00 inScattered Clouds
11:01 AM80.6 °F78.8 °F94 %29.89 in9.0 miENE (70°)17.3 mph27.6 mphLight Drizzle
11:06 AM80.6 °F78.8 °F94 %29.89 in7.0 miEast (80°)20.7 mphRainLight Rain
11:11 AM80.6 °F78.8 °F94 %29.89 in2.5 miEast (90°)18.4 mphRainRain
11:16 AM80.6 °F77.0 °F89 %29.88 in2.0 miEast (80°)21.9 mph31.1 mphRainLight Rain
11:21 AM80.6 °F77.0 °F89 %29.88 in5.0 miENE (70°)21.9 mph31.1 mphRainLight Rain
11:28 AM80.6 °F78.8 °F94 %29.88 in10.0 miENE (70°)18.4 mph27.6 mphMostly Cloudy
11:38 AM82.4 °F78.8 °F89 %29.88 in10.0 miENE (70°)21.9 mph27.6 mphMostly Cloudy
11:43 AM82.4 °F78.8 °F89 %29.88 in10.0 miENE (70°)21.9 mph27.6 mphScattered Clouds
11:53 AM80.6 °F77.0 °F89 %29.87 in10.0 miENE (70°)19.6 mphLight Drizzle
11:58 AM80.4 °F77.5 °F91 %29.84 in10.0 miENE (70°)18.4 mph0.07 inLight Drizzle
11:59 AM80.6 °F78.8 °F94 %29.87 in10.0 miENE (70°)19.6 mphScattered Clouds
12:58 PM83.8 °F77.5 °F81 %29.81 in10.0 miENE (70°)20.7 mph0.00 inScattered Clouds
1:58 PM83.8 °F76.8 °F79 %29.79 in10.0 miENE (60°)19.6 mphPartly Cloudy
2:58 PM83.1 °F75.6 °F78 %29.77 in10.0 miENE (60°)18.4 mphScattered Clouds
3:58 PM81.5 °F76.6 °F85 %29.80 in10.0 miENE (60°)18.4 mphMostly Cloudy
4:58 PM81.0 °F76.1 °F85 %29.78 in10.0 miENE (60°)17.3 mphMostly Cloudy
5:08 PM80.6 °F77.0 °F89 %29.81 in10.0 miENE (60°)17.3 mphMostly Cloudy
5:13 PM80.6 °F77.0 °F89 %29.81 in10.0 miENE (60°)17.3 mphMostly Cloudy
5:18 PM80.6 °F77.0 °F89 %29.81 in10.0 miENE (60°)18.4 mphMostly Cloudy
5:28 PM80.6 °F75.2 °F84 %29.82 in10.0 miENE (70°)16.1 mphScattered Clouds
5:48 PM80.6 °F75.2 °F84 %29.83 in10.0 miENE (60°)17.3 mphMostly Cloudy
5:58 PM79.9 °F76.1 °F88 %29.81 in10.0 miENE (70°)17.3 mph24.2 mphScattered Clouds
6:03 PM80.6 °F75.2 °F84 %29.83 in10.0 miENE (60°)17.3 mph24.2 mphMostly Cloudy
6:08 PM80.6 °F75.2 °F84 %29.83 in10.0 miENE (60°)17.3 mph24.2 mphMostly Cloudy
6:13 PM80.6 °F75.2 °F84 %29.83 in10.0 miENE (60°)18.4 mphScattered Clouds
6:58 PM79.7 °F74.3 °F83 %29.82 in10.0 miENE (70°)18.4 mphPartly Cloudy
7:38 PM78.8 °F73.4 °F83 %29.86 in10.0 miENE (70°)20.7 mphMostly Cloudy
7:43 PM78.8 °F73.4 °F83 %29.87 in10.0 miENE (60°)17.3 mphMostly Cloudy
7:53 PM78.8 °F73.4 °F83 %29.87 in10.0 miENE (70°)17.3 mphScattered Clouds
7:58 PM79.3 °F73.6 °F82 %29.84 in10.0 miENE (60°)15.0 mphScattered Clouds
8:58 PM79.2 °F74.1 °F84 %29.86 in10.0 miENE (60°)15.0 mphPartly Cloudy
9:58 PM79.5 °F75.4 °F87 %29.86 in10.0 miENE (60°)13.8 mphScattered Clouds
10:03 PM78.8 °F75.2 °F89 %29.88 in10.0 miENE (60°)18.4 mphMostly Cloudy
10:13 PM78.8 °F75.2 °F89 %29.88 in10.0 miENE (70°)16.1 mphScattered Clouds
10:38 PM78.8 °F75.2 °F89 %29.88 in10.0 miENE (60°)19.6 mphMostly Cloudy
10:43 PM78.8 °F75.2 °F89 %29.88 in10.0 miENE (60°)18.4 mphMostly Cloudy
10:58 PM79.7 °F75.2 °F86 %29.86 in10.0 miENE (70°)16.1 mphMostly Cloudy
11:58 PM79.0 °F74.8 °F87 %29.86 in10.0 miENE (70°)16.1 mphPartly Cloudy
Hourly data recorded from PGUA, located miles away from Tamuning, Guam







STORIES FROM OUR PARTNERS